Snowfall_Accumulation
0.1 0.0 0.0 0.0 0.0 0.0 0.0 0.1 0.1 0.1 0.1 0.1 0.1 0.1 0.1 0.1 0.1 0.1 0.2 0.2 0.3 0.4 0.4 0.3 0.7 0.3 0.9 0.7 0.3 0.1 0.0 0.1 2.2 5.2 3.5 3.6 3.9 3.4 2.9 1.9 1.8 1.3 0.7
0.0 0.0 0.0 0.0 0.0 0.1 0.4 0.4 0.2 1.0 0.3 0.9 0.5 0.7 0.4 0.3 0.3 0.2 0.5 0.6 0.8 1.1 1.5 1.0 1.7 0.3 1.0 0.6 0.8 0.5 0.6 0.6 2.1 4.5 4.5 4.7 3.4 2.5 2.0 1.7 1.5 0.9 0.5
0.0 0.1 0.1 0.4 1.0 2.2 3.1 1.9 1.0 2.0 2.5 1.5 0.9 0.8 1.6 1.9 1.9 1.5 1.5 2.0 1.7 1.9 1.6 1.4 1.9 1.1 1.8 1.7 1.0 1.3 1.5 1.3 2.0 3.4 4.5 3.4 2.9 2.7 2.9 2.3 1.4 0.7 0.2
0.2 0.3 0.6 1.0 0.9 2.0 3.2 4.0 3.5 2.2 2.0 2.3 2.3 3.1 3.1 3.0 2.8 2.8 2.4 2.8 2.7 2.6 2.1 1.5 1.5 1.2 1.2 1.2 1.4 1.8 2.1 2.5 2.8 2.9 2.6 2.8 2.4 2.8 2.0 1.5 1.5 0.8 0.5
0.8 2.4 4.5 2.8 2.4 3.6 5.7 5.5 4.8 4.0 4.3 4.4 4.4 3.9 3.7 3.2 2.3 2.3 2.1 2.3 2.4 3.1 3.1 2.5 2.1 1.3 nan nan 1.4 2.3 2.2 2.1 1.9 1.9 1.9 1.8 1.6 1.9 1.3 1.2 1.0 0.6 0.3
3.0 7.9 6.3 6.5 5.3 5.9 9.1 8.2 7.5 6.8 7.5 6.4 5.0 3.6 3.2 2.4 nan nan 1.2 1.4 1.7 2.1 2.9 2.8 2.6 1.8 1.3 nan nan nan nan 0.8 0.8 1.0 1.1 0.7 0.6 0.8 0.8 0.8 0.8 1.5 3.2
7.2 9.2 9.8 11.3 8.4 9.1 8.4 7.8 6.8 6.2 5.6 6.0 5.1 3.5 3.4 2.2 nan nan nan 1.5 1.6 1.5 1.5 1.6 1.9 1.3 0.4 0.4 nan nan nan nan nan 0.1 0.1 0.2 0.5 0.4 0.3 0.4 0.7 1.6 1.6
9.2 10.7 10.3 10.9 8.8 7.6 7.6 7.4 7.4 5.4 5.2 3.3 3.7 3.3 3.1 2.7 nan nan nan 1.7 1.7 1.9 1.3 0.7 0.3 0.3 0.1 0.0 0.0 0.1 0.0 0.1 0.0 0.0 0.1 0.1 0.1 0.1 0.1 0.4 0.9 1.0 2.6
11.6 11.3 11.0 9.1 10.3 8.6 8.5 8.7 6.8 3.9 2.9 2.7 2.4 1.9 1.0 2.0 nan nan 0.9 1.1 1.0 1.4 1.1 0.6 0.2 0.2 nan nan 0.4 0.2 0.1 0.0 nan nan nan nan nan nan nan 2.3 9.8 13.8 9.6
10.2 10.5 9.8 9.2 8.5 8.6 6.3 6.8 7.7 4.1 3.6 2.2 1.7 1.2 0.5 1.2 nan nan nan 0.3 0.3 0.8 0.3 0.1 0.0 0.0 nan nan 0.3 0.5 1.0 0.4 0.6 1.5 0.8 0.6 nan nan nan 0.6 2.8 12.5 9.6
5.8 6.7 7.2 6.5 6.3 5.3 3.9 3.1 2.6 2.0 1.9 1.9 1.5 1.3 1.1 0.3 0.4 nan nan 0.1 0.5 0.9 0.9 0.8 0.5 nan nan nan nan 0.9 0.9 0.6 1.4 1.8 2.1 2.6 1.8 1.4 2.0 1.7 1.4 3.8 10.4
2.7 3.0 3.4 3.4 3.0 3.2 1.9 1.1 1.4 0.8 0.5 0.7 0.6 0.9 0.9 0.1 nan nan nan nan nan 1.1 0.8 0.7 0.5 nan nan nan 0.9 nan nan 1.4 4.4 5.3 4.6 4.1 3.5 3.4 3.3 3.7 2.5 2.9 3.3
2.3 4.1 3.6 2.6 2.3 2.0 1.5 0.7 1.9 0.5 1.5 0.5 1.9 1.9 1.7 1.5 1.1 nan nan nan nan 1.3 0.9 1.0 nan nan nan nan nan nan 0.8 5.3 5.8 7.7 5.7 4.5 3.6 3.4 4.2 6.1 4.7 3.7 3.7
4.2 2.4 1.4 1.5 1.0 1.0 1.9 1.9 2.8 2.5 2.4 2.6 3.2 3.3 2.5 2.4 1.5 1.3 2.2 1.3 0.9 2.5 nan 2.4 nan 1.9 nan nan 2.3 2.8 3.6 4.6 4.7 6.2 6.9 5.3 5.2 7.9 8.2 5.7 7.0 6.0 10.0
3.4 1.6 1.2 2.0 2.3 1.5 1.5 2.4 2.1 0.8 2.2 5.2 6.4 5.1 7.1 6.6 3.7 1.5 4.6 5.1 4.6 5.0 4.8 7.1 6.4 5.2 5.4 4.8 5.5 5.8 5.5 5.7 6.7 7.1 8.2 8.8 9.3 8.6 7.8 6.0 6.7 8.1 10.6
2.5 3.4 3.0 3.0 2.6 2.3 2.5 2.8 nan nan nan nan nan 3.9 5.5 nan nan nan nan nan nan nan 11.8 12.6 7.3 6.0 5.9 6.2 8.0 8.2 8.1 7.4 7.6 8.9 10.2 9.7 11.0 10.0 9.7 10.0 9.2 10.2 11.5
5.6 4.1 4.8 4.2 3.8 3.9 3.9 4.2 6.7 3.6 nan nan nan nan nan nan nan nan nan nan nan nan 18.8 10.7 9.9 7.7 8.1 8.3 9.0 8.5 10.3 8.6 7.1 9.9 9.8 10.4 11.3 11.7 12.4 11.4 10.0 9.2 12.2
5.1 2.1 4.8 4.5 4.1 4.5 4.7 4.8 5.2 7.4 8.9 7.0 nan nan nan nan nan nan nan nan 19.2 nan 13.6 16.8 16.4 14.4 13.2 12.3 10.9 11.5 11.7 11.4 10.7 10.1 10.5 13.0 14.9 16.0 16.0 15.4 12.2 14.5 14.2
6.6 5.1 5.6 5.3 4.9 5.1 5.7 5.2 5.3 6.2 6.9 9.3 10.0 9.3 4.5 nan nan nan nan 14.1 18.5 16.8 16.7 16.8 14.3 15.2 14.1 14.7 14.2 15.4 14.0 15.3 14.1 16.7 16.7 17.7 16.6 17.8 18.0 14.1 12.9 8.2 9.1
7.8 3.7 5.8 8.9 8.4 7.5 5.8 7.9 8.0 8.6 10.1 11.3 11.4 10.3 13.0 12.9 17.3 17.0 14.8 19.4 20.4 19.0 16.9 17.9 17.9 19.8 21.3 20.5 20.0 18.9 19.8 20.8 19.5 19.1 18.8 18.6 17.8 18.6 16.1 19.0 17.2 16.7 17.0
13.2 11.8 3.3 11.7 13.2 13.6 13.8 12.3 11.4 14.2 12.9 14.1 11.9 11.1 nan 17.1 18.8 19.1 19.4 19.5 21.0 22.4 19.6 20.2 21.2 26.0 26.5 28.6 25.6 25.2 24.0 17.7 20.1 21.3 21.9 21.9 21.7 28.6 17.4 14.4 18.7 19.4 19.3
15.9 16.3 16.2 17.5 14.1 15.0 16.6 13.7 14.5 14.6 14.5 13.6 11.8 12.2 nan 16.5 17.7 18.1 20.5 23.5 27.0 28.0 29.1 32.4 31.5 32.8 30.4 29.3 27.4 25.9 23.1 24.8 25.5 24.5 21.2 22.3 25.0 23.7 22.4 18.7 19.0 17.9 21.0
15.3 14.6 15.5 15.7 15.4 7.4 16.8 18.6 17.8 17.5 17.1 18.4 17.2 18.5 20.1 21.8 21.6 22.4 27.2 29.2 26.2 25.6 27.4 28.7 27.4 27.0 25.5 27.1 24.8 24.2 25.9 26.5 26.2 31.1 26.9 26.3 26.1 27.5 25.3 24.5 22.5 25.6 24.0
14.8 14.9 14.9 18.2 17.6 16.7 18.6 19.4 17.9 7.2 18.8 20.1 26.3 23.9 18.9 21.5 26.6 22.8 23.1 25.4 23.0 30.3 25.0 26.0 23.5 23.2 23.8 29.6 33.9 33.5 35.3 36.2 35.6 33.6 31.9 27.8 26.5 21.8 25.0 27.3 23.2 22.0 21.1
18.7 17.8 17.7 16.9 21.5 19.4 18.6 21.2 18.3 22.3 24.3 21.4 23.5 20.0 20.6 19.5 20.2 24.4 23.5 21.1 22.7 21.4 19.7 19.5 20.0 20.5 21.0 22.1 26.7 30.0 28.1 5.0 20.3 5.4 32.0 27.1 28.9 27.9 28.1 25.8 23.9 22.8 20.3
16.7 17.9 18.4 18.8 18.8 19.6 20.0 19.7 20.1 17.8 20.5 21.1 20.3 20.6 18.8 18.9 18.4 20.0 19.2 19.4 17.3 18.0 18.5 19.8 20.0 18.9 18.2 19.1 19.8 7.7 4.8 4.3 26.5 4.8 32.0 30.5 29.4 26.9 26.6 26.8 24.9 24.4 21.0
Water_Equivalent
0.01 0.01 0.00 0.00 0.00 0.00 0.01 0.02 0.02 0.03 0.03 0.03 0.04 0.04 0.04 0.04 0.03 0.03 0.06 0.04 0.06 0.09 0.08 0.06 0.14 0.06 0.19 0.17 0.08 0.02 0.01 0.02 0.34 0.70 0.52 0.56 0.60 0.54 0.54 0.33 0.29 0.19 0.10
0.00 0.00 0.01 0.01 0.01 0.03 0.12 0.11 0.07 0.28 0.11 0.30 0.16 0.21 0.13 0.08 0.06 0.05 0.10 0.14 0.18 0.23 0.31 0.21 0.35 0.08 0.21 0.14 0.20 0.11 0.11 0.12 0.34 0.58 0.62 0.67 0.51 0.41 0.32 0.25 0.21 0.12 0.06
0.01 0.02 0.04 0.12 0.27 0.59 0.88 0.58 0.34 0.69 0.85 0.53 0.25 0.22 0.39 0.47 0.48 0.34 0.31 0.43 0.36 0.38 0.34 0.29 0.37 0.24 0.35 0.36 0.22 0.26 0.28 0.24 0.33 0.49 0.56 0.52 0.46 0.41 0.41 0.31 0.17 0.08 0.03
0.07 0.07 0.15 0.26 0.25 0.57 0.99 1.34 1.21 0.80 0.67 0.71 0.67 0.90 0.86 0.87 0.76 0.82 0.54 0.59 0.62 0.58 0.49 0.35 0.33 0.26 0.25 0.25 0.26 0.31 0.34 0.38 0.41 0.41 0.35 0.35 0.31 0.37 0.26 0.18 0.19 0.12 0.09
0.21 0.65 1.14 0.76 0.67 1.01 1.57 1.57 1.35 1.16 1.15 1.09 1.04 0.82 0.79 0.66 0.51 0.50 0.45 0.46 0.44 0.53 0.52 0.43 0.39 0.32 nan nan 0.24 0.36 0.33 0.29 0.29 0.29 0.27 0.24 0.20 0.25 0.19 0.17 0.17 0.10 0.06
0.73 1.57 1.48 1.66 1.44 1.40 1.93 1.49 1.35 1.16 1.39 1.17 0.90 0.68 0.59 0.48 nan nan 0.22 0.23 0.28 0.34 0.44 0.45 0.45 0.34 0.24 nan nan nan nan 0.11 0.11 0.19 0.17 0.12 0.06 0.13 0.14 0.15 0.17 0.30 0.46
1.42 2.10 2.27 2.30 1.56 1.64 1.56 1.55 1.24 1.03 1.11 1.12 0.85 0.60 0.62 0.41 nan nan nan 0.26 0.25 0.23 0.23 0.23 0.28 0.20 0.11 0.08 nan nan nan nan nan 0.01 0.02 0.04 0.04 0.04 0.03 0.05 0.09 0.27 0.29
1.78 1.93 1.85 1.93 1.51 1.38 1.33 1.25 1.43 1.04 1.16 0.72 0.83 0.68 0.62 0.69 nan nan nan 0.26 0.25 0.28 0.19 0.10 0.05 0.04 0.01 0.00 0.00 0.01 0.01 0.01 0.00 0.00 0.01 0.01 0.01 0.01 0.02 0.06 0.13 0.15 0.41
1.91 1.80 1.75 1.46 1.65 1.35 1.26 1.37 1.00 0.59 0.43 0.43 0.52 0.41 0.24 0.34 nan nan 0.13 0.15 0.13 0.17 0.14 0.08 0.03 0.03 nan nan 0.04 0.02 0.01 0.01 nan nan nan nan nan nan nan 0.52 1.99 2.58 1.50
1.38 1.50 1.45 1.33 1.23 1.12 0.81 0.88 1.07 0.62 0.55 0.41 0.28 0.21 0.13 0.19 nan nan nan 0.09 0.04 0.16 0.04 0.01 0.01 0.00 nan nan 0.04 0.07 0.15 0.07 0.09 0.35 0.15 0.12 nan nan nan 0.10 0.58 2.03 1.45
0.74 0.87 0.93 0.84 0.81 0.68 0.50 0.40 0.33 0.25 0.26 0.29 0.21 0.19 0.17 0.06 0.06 nan nan 0.04 0.15 0.26 0.25 0.21 0.14 nan nan nan nan 0.13 0.13 0.06 0.24 0.32 0.38 0.53 0.38 0.28 0.43 0.32 0.24 0.63 1.42
0.34 0.37 0.43 0.47 0.40 0.41 0.32 0.17 0.25 0.13 0.10 0.11 0.11 0.20 0.24 0.02 nan nan nan nan nan 0.30 0.18 0.17 0.14 nan nan nan 0.23 nan nan 0.35 1.01 1.15 0.96 0.77 0.59 0.56 0.52 0.54 0.30 0.40 0.50
0.36 0.65 0.57 0.43 0.37 0.32 0.31 0.14 0.47 0.12 0.35 0.10 0.41 0.40 0.34 0.34 0.32 nan nan nan nan 0.32 0.23 0.21 nan nan nan nan nan nan 0.27 0.98 1.17 1.46 0.96 0.67 0.50 0.44 0.42 0.63 0.45 0.37 0.37
0.79 0.37 0.22 0.27 0.20 0.19 0.42 0.45 0.65 0.55 0.49 0.53 0.64 0.64 0.47 0.48 0.33 0.34 0.57 0.35 0.26 0.59 nan 0.51 nan 0.39 nan nan 0.53 0.55 0.70 0.79 0.78 0.94 0.94 0.67 0.66 0.93 0.93 0.66 0.85 0.73 1.24
0.52 0.21 0.21 0.39 0.44 0.27 0.28 0.50 0.42 0.17 0.48 1.07 1.38 1.00 1.28 1.21 0.71 0.31 1.01 1.17 1.07 1.08 1.21 1.51 1.27 0.94 0.94 0.83 0.99 1.00 0.95 0.93 1.06 1.06 1.11 1.12 1.13 1.06 0.95 0.75 0.82 1.06 1.34
0.30 0.50 0.49 0.50 0.43 0.38 0.40 0.44 nan nan nan nan nan 0.81 1.24 nan nan nan nan nan nan nan 2.73 2.56 1.23 0.99 0.88 0.93 1.18 1.10 1.06 1.10 1.00 1.16 1.33 1.28 1.36 1.18 1.15 1.29 1.21 1.33 1.41
0.71 0.47 0.63 0.55 0.51 0.57 0.60 0.68 0.88 0.62 nan nan nan nan nan nan nan nan nan nan nan nan 4.06 1.93 1.61 1.15 1.16 1.10 1.18 1.09 1.21 1.04 0.75 1.21 1.16 1.26 1.38 1.49 1.64 1.43 1.24 1.15 1.63
0.67 0.68 0.69 0.66 0.64 0.71 0.75 0.79 0.85 1.06 1.22 0.97 nan nan nan nan nan nan nan nan 3.81 nan 2.82 2.98 2.55 2.09 1.71 1.58 1.35 1.36 1.36 1.30 1.23 1.22 1.28 1.73 2.04 2.19 2.12 2.08 1.59 1.97 1.87
0.77 0.64 0.73 0.71 0.68 0.74 0.83 0.74 0.80 0.85 0.89 1.16 1.18 1.24 1.04 nan nan nan nan 2.45 3.17 2.74 2.69 2.76 2.30 2.22 1.84 1.97 1.86 2.09 1.79 1.91 1.77 2.32 2.36 2.55 2.36 2.53 2.54 1.88 1.61 1.44 1.52
0.86 0.93 0.85 1.11 1.02 0.90 0.65 0.86 0.82 0.88 1.03 1.19 1.22 1.10 1.82 2.12 2.80 2.84 2.37 3.34 3.36 2.99 2.54 2.75 2.75 3.10 3.28 3.07 2.97 2.74 2.81 3.00 2.73 2.74 2.69 2.66 2.54 2.74 2.01 2.63 2.33 2.08 2.32
1.46 1.24 1.08 1.18 1.42 1.48 1.51 1.27 1.10 1.50 1.31 1.50 1.23 1.16 nan 2.22 2.30 2.48 2.81 2.66 3.08 3.33 2.75 2.97 3.13 4.10 4.25 4.72 3.95 3.81 3.52 2.29 2.81 3.06 3.23 3.22 3.15 4.06 2.46 1.81 2.49 2.65 2.59
1.70 1.77 1.74 1.89 1.37 1.49 1.75 1.32 1.42 1.46 1.42 1.30 1.09 1.22 nan 1.71 1.90 1.97 2.23 2.82 3.45 3.58 4.08 4.75 4.64 5.04 4.48 4.21 3.81 3.58 3.01 3.42 3.67 3.43 2.79 2.96 3.48 3.11 3.08 2.31 2.41 2.17 2.75
1.50 1.33 1.45 1.47 1.44 1.59 1.66 1.97 1.80 1.77 1.67 1.87 1.70 1.76 1.98 2.43 2.28 2.29 3.20 3.52 2.93 2.80 3.16 3.41 3.23 3.13 2.97 3.31 2.96 2.86 3.05 3.27 3.32 4.38 3.18 3.22 3.14 3.56 3.25 3.00 2.71 3.08 2.94
1.35 1.37 1.37 1.85 1.69 1.50 1.79 1.91 1.67 1.69 1.82 2.00 3.04 2.57 1.73 2.15 2.96 2.25 2.33 2.75 2.32 3.74 2.73 2.91 2.46 2.41 2.61 3.85 4.85 4.76 5.15 5.40 5.16 4.74 4.31 3.12 3.00 2.61 2.73 3.18 2.57 2.48 2.17
1.79 1.58 1.61 1.50 2.25 1.85 1.73 2.12 1.61 2.22 2.57 2.10 2.49 1.89 1.93 1.78 1.92 2.70 2.53 2.11 2.37 2.19 1.92 1.90 1.99 2.07 2.14 2.28 3.10 3.92 4.11 1.67 3.08 1.79 3.89 2.86 3.25 3.23 3.12 2.74 2.56 2.30 2.05
1.46 1.59 1.65 1.71 1.69 1.86 1.95 1.91 1.99 1.62 2.04 2.16 2.01 2.05 1.76 1.76 1.76 2.10 1.94 1.97 1.61 1.71 1.80 1.98 1.99 1.81 1.71 1.89 2.00 1.89 1.58 1.43 3.37 1.58 3.37 2.91 3.04 2.71 2.67 2.71 2.50 2.43 2.02
SL_Ratio
5.5 5.4 5.0 5.0 nan 5.0 3.1 2.6 3.1 3.3 3.2 3.3 3.0 2.8 3.0 3.3 3.6 4.0 4.2 4.2 4.7 4.8 4.6 4.6 4.9 4.7 4.8 4.5 4.0 2.8 3.3 4.6 6.4 7.5 6.7 6.5 6.5 6.3 5.4 5.8 6.2 6.6 6.8
4.3 5.0 3.8 3.7 3.2 3.4 3.5 3.5 3.5 3.5 3.1 3.0 2.8 3.3 3.5 4.0 4.1 4.1 4.4 4.5 4.8 4.8 4.8 4.8 4.8 4.1 4.7 4.2 4.2 4.8 5.2 5.4 6.4 7.9 7.3 7.0 6.7 6.2 6.4 6.8 7.2 7.3 7.6
4.1 3.6 3.3 3.5 3.6 3.6 3.5 3.3 3.0 2.9 3.0 2.9 3.4 3.8 4.0 4.0 3.9 4.5 4.6 4.7 4.8 4.9 4.7 4.7 5.0 4.8 5.0 4.8 4.8 5.2 5.5 5.6 6.0 7.1 7.9 6.6 6.4 6.6 7.1 7.5 8.5 8.7 7.7
3.4 3.6 3.8 3.7 3.6 3.5 3.3 3.0 2.9 2.7 2.9 3.2 3.5 3.4 3.6 3.4 3.7 3.4 4.5 4.6 4.4 4.5 4.2 4.3 4.5 4.6 5.0 5.1 5.5 6.0 6.2 6.5 6.7 7.2 7.4 8.0 7.8 7.8 7.6 8.1 7.8 6.5 6.0
3.6 3.7 4.0 3.7 3.6 3.5 3.6 3.5 3.5 3.4 3.7 4.1 4.2 4.7 4.7 4.9 4.5 4.6 4.6 5.0 5.5 5.8 6.0 5.8 5.5 4.0 nan nan 6.0 6.5 6.7 7.1 6.6 6.6 7.1 7.6 8.1 7.6 7.0 7.2 5.7 5.7 4.4
4.1 5.0 4.3 3.9 3.7 4.2 4.7 5.5 5.5 5.9 5.4 5.5 5.6 5.3 5.4 4.9 nan nan 5.5 5.9 5.8 6.2 6.6 6.2 5.8 5.2 5.6 nan nan nan nan 7.2 7.8 5.4 6.3 6.3 9.8 5.9 5.7 5.1 4.5 5.0 6.9
5.0 4.4 4.3 4.9 5.4 5.6 5.4 5.0 5.5 6.1 5.0 5.4 6.0 5.9 5.4 5.3 nan nan nan 6.1 6.4 6.4 6.5 6.7 6.9 6.6 3.5 5.6 nan nan nan nan nan 6.5 7.1 5.6 11.2 11.6 10.3 8.1 7.1 5.9 5.6
5.1 5.5 5.6 5.7 5.8 5.5 5.7 5.9 5.2 5.2 4.5 4.6 4.4 4.8 5.1 4.0 nan nan nan 6.5 6.8 7.0 7.0 7.0 7.0 6.9 5.6 5.0 8.6 8.0 7.0 7.5 7.1 7.5 9.1 10.0 10.4 5.7 6.1 6.4 6.7 7.0 6.3
6.1 6.3 6.3 6.3 6.3 6.4 6.7 6.4 6.8 6.6 6.8 6.3 4.6 4.6 4.4 5.7 nan nan 6.9 7.1 7.4 7.8 7.7 7.8 7.5 7.5 nan nan 9.1 7.4 5.2 5.0 nan nan nan nan nan nan nan 4.5 4.9 5.4 6.4
7.4 7.0 6.8 6.9 6.9 7.6 7.7 7.7 7.2 6.6 6.5 5.3 6.0 5.9 3.7 6.3 nan nan nan 3.5 8.0 4.8 7.6 6.8 2.9 5.0 nan nan 8.0 6.8 6.5 6.4 6.6 4.1 5.6 5.3 nan nan nan 5.7 4.9 6.1 6.6
7.8 7.7 7.7 7.7 7.7 7.8 7.8 7.8 7.8 7.8 7.2 6.5 7.0 6.6 6.3 5.4 6.6 nan nan 2.5 3.1 3.6 3.6 3.9 3.6 nan nan nan nan 6.5 6.8 9.2 5.7 5.5 5.5 4.9 4.8 5.0 4.6 5.1 6.1 6.1 7.3
7.9 8.1 7.9 7.3 7.5 7.7 5.9 6.6 5.6 6.4 5.1 6.3 5.4 4.5 3.9 4.5 nan nan nan nan nan 3.8 4.5 3.9 3.8 nan nan nan 3.8 nan nan 4.0 4.4 4.6 4.8 5.3 5.9 6.1 6.4 6.9 8.3 7.2 6.7
6.3 6.3 6.3 6.1 6.0 6.4 4.8 5.0 4.1 4.1 4.4 5.1 4.7 4.8 4.9 4.4 3.6 nan nan nan nan 4.0 3.9 4.9 nan nan nan nan nan nan 3.0 5.4 5.0 5.3 6.0 6.7 7.2 7.7 10.1 9.7 10.4 10.0 10.0
5.3 6.6 6.4 5.6 5.0 5.2 4.5 4.3 4.2 4.6 5.0 4.8 4.9 5.1 5.2 5.1 4.6 4.0 3.9 3.7 3.7 4.3 nan 4.6 nan 4.9 nan nan 4.2 5.1 5.2 5.8 6.0 6.6 7.4 7.9 7.9 8.5 8.8 8.7 8.2 8.2 8.1
6.5 7.4 5.6 5.2 5.3 5.6 5.4 4.8 4.9 4.8 4.6 4.8 4.7 5.1 5.5 5.5 5.2 4.7 4.5 4.4 4.3 4.6 4.0 4.7 5.0 5.5 5.8 5.8 5.6 5.8 5.8 6.1 6.3 6.7 7.4 7.9 8.2 8.2 8.2 8.1 8.2 7.7 7.9
8.2 6.8 6.1 5.9 5.9 6.1 6.4 6.3 nan nan nan nan nan 4.8 4.4 nan nan nan nan nan nan nan 4.3 4.9 5.9 6.1 6.7 6.6 6.8 7.4 7.6 6.8 7.6 7.6 7.7 7.6 8.1 8.4 8.4 7.7 7.6 7.7 8.2
7.8 8.8 7.6 7.6 7.4 6.9 6.4 6.2 7.6 5.9 nan nan nan nan nan nan nan nan nan nan nan nan 4.6 5.6 6.1 6.7 7.0 7.5 7.7 7.8 8.5 8.3 9.5 8.1 8.5 8.3 8.2 7.9 7.6 8.0 8.1 8.0 7.5
7.7 3.0 6.9 6.8 6.4 6.4 6.2 6.1 6.1 7.0 7.3 7.2 nan nan nan nan nan nan nan nan 5.0 nan 4.8 5.6 6.4 6.9 7.7 7.7 8.1 8.4 8.6 8.8 8.7 8.3 8.2 7.5 7.3 7.3 7.5 7.4 7.7 7.4 7.6
8.5 7.9 7.7 7.5 7.2 6.9 6.8 7.0 6.6 7.3 7.8 8.0 8.5 7.5 4.3 nan nan nan nan 5.8 5.8 6.1 6.2 6.1 6.2 6.8 7.7 7.5 7.6 7.4 7.8 8.0 8.0 7.2 7.1 6.9 7.1 7.0 7.1 7.5 8.0 5.7 6.0
9.1 4.0 6.8 7.9 8.2 8.3 8.9 9.1 9.7 9.7 9.8 9.5 9.4 9.4 7.1 6.1 6.2 6.0 6.2 5.8 6.1 6.4 6.7 6.5 6.5 6.4 6.5 6.7 6.7 6.9 7.0 7.0 7.2 7.0 7.0 7.0 7.0 6.8 8.0 7.2 7.4 8.0 7.3
9.0 9.6 3.0 9.9 9.3 9.2 9.1 9.7 10.3 9.5 9.8 9.3 9.7 9.6 nan 7.7 8.1 7.7 6.9 7.3 6.8 6.7 7.1 6.8 6.8 6.4 6.2 6.1 6.5 6.6 6.8 7.7 7.2 7.0 6.8 6.8 6.9 7.0 7.1 8.0 7.5 7.3 7.5
9.4 9.2 9.3 9.2 10.3 10.1 9.5 10.4 10.2 10.0 10.2 10.5 10.9 10.0 nan 9.6 9.3 9.2 9.2 8.4 7.8 7.8 7.1 6.8 6.8 6.5 6.8 7.0 7.2 7.2 7.7 7.3 6.9 7.1 7.6 7.5 7.2 7.6 7.3 8.1 7.9 8.2 7.6
10.2 11.0 10.7 10.7 10.7 4.6 10.1 9.4 9.9 9.9 10.3 9.8 10.1 10.5 10.1 9.0 9.5 9.8 8.5 8.3 9.0 9.2 8.7 8.4 8.5 8.6 8.6 8.2 8.4 8.4 8.5 8.1 7.9 7.1 8.5 8.2 8.3 7.7 7.8 8.2 8.3 8.3 8.2
11.0 10.9 10.9 9.8 10.4 11.1 10.4 10.2 10.7 4.3 10.4 10.1 8.7 9.3 10.9 10.0 9.0 10.2 9.9 9.3 9.9 8.1 9.2 8.9 9.5 9.6 9.1 7.7 7.0 7.0 6.8 6.7 6.9 7.1 7.4 8.9 8.8 8.3 9.2 8.6 9.0 8.9 9.7
10.4 11.2 11.0 11.3 9.5 10.5 10.7 10.0 11.3 10.0 9.4 10.2 9.4 10.6 10.7 11.0 10.5 9.0 9.3 10.0 9.6 9.8 10.3 10.3 10.0 9.9 9.8 9.7 8.6 7.7 6.8 3.0 6.6 3.0 8.2 9.5 8.9 8.6 9.0 9.4 9.4 9.9 9.9
11.4 11.3 11.1 11.0 11.1 10.6 10.2 10.3 10.1 11.0 10.1 9.8 10.1 10.0 10.7 10.7 10.5 9.5 9.9 9.9 10.7 10.5 10.3 10.0 10.0 10.4 10.6 10.1 9.9 4.1 3.0 3.0 7.9 3.0 9.5 10.5 9.7 9.9 10.0 9.9 10.0 10.0 10.4